Regional Weather Roundup
Issued by NWS

Home | Current Version | Previous Version | Text Only | Print | Product List | Glossary Off
Versions: 1 2 3 4 5 6 7 8 9 10 11 12 13 14 15 16 17 18 19 20 21 22 23 24 25 26 27 28 29 30 31 32 33 34 35 36 37 38 39 40 41 42 43 44 45 46 47 48 49 50

000
ASUS45 KSLC 050710
RWRUT
UTAH REGIONAL WEATHER ROUNDUP
NATIONAL WEATHER SERVICE SALT LAKE CITY UT
100 AM MDT WED AUG 05 2015

UTZ001>011-023>025-050800-

NORTHERN UTAH

CITY           SKY/WX    TMP DP  RH WIND       PRES   REMARKS
BRIGHAM CITY   CLOUDY    71  46  40 CALM      29.97S
HILL AFB       CLOUDY    73  48  40 E17G24    30.00R
LOGAN          CLEAR     66  50  56 CALM      30.02F
OGDEN          MOCLDY    74  49  41 SW6       29.97R
PROVO AIRPORT  PTCLDY    72  48  43 CALM      30.02R
SALT LAKE CITY PTCLDY    75  46  35 S9        29.96R
VERNAL         CLEAR     66  48  52 W6        30.12S
WENDOVER       CLOUDY    79  39  24 N12       29.97S
HEBER CITY     PTCLDY    61  50  67 CALM      30.12S
WEST JORDAN    CLEAR     72  50  46 SE7       30.01R

$$

UTZ012>022-026-027-050800-

SOUTHERN/CENTRAL UTAH

CITY           SKY/WX    TMP DP  RH WIND       PRES   REMARKS
BLANDING       PTCLDY    69  44  41 N9        30.25S
CEDAR CITY     CLEAR     70  25  18 S7        30.15R
DELTA          PTCLDY    76  28  17 S13       30.04R
HANKSVILLE     CLEAR     70  48  46 CALM      30.05R
MILFORD        CLEAR     76  23  14 S17       30.07R
MOAB/CYNLANDS  CLEAR     72  52  49 E3        30.03R
PRICE          CLEAR     67  47  48 N8        30.14F
ST GEORGE      MOSUNNY   81  28  15 SE5       29.95S
KANAB          CLEAR     63  36  36 CALM      30.18R

$$

REGIONAL REPORTS     COLORADO/ARIZONA

CITY           SKY/WX    TMP DP  RH WIND       PRES   REMARKS
CRAIG, CO      NOT AVBL
GRAND JUNCTION CLEAR     68  41  37 E6        30.09R
RIFLE          CLEAR     64  47  53 CALM      30.19R
MONTROSE       CLEAR     67  44  43 SE12      30.20F
CORTEZ         CLEAR     55  47  74 SE5       30.20S
PAGE, AZ       CLEAR     86  29  12 SW6       30.05R
GRAND CANYON   CLEAR     48  30  49 CALM      30.31R
KINGMAN        CLEAR     78  31  17 S8        30.02R
FLAGSTAFF      CLEAR     54  32  43 CALM      30.34S

$$

REGIONAL REPORTS    NEVADA/IDAHO/WYOMING

CITY           SKY/WX    TMP DP  RH WIND       PRES   REMARKS
LAS VEGAS, NV  PTCLDY    93  37  14 S8        29.84R
ELY            PTCLDY    70  28  21 SW7       30.14R
ELKO           CLOUDY    78  39  24 VRB7      30.02R
POCATELLO, ID  CLEAR     68  47  46 E6        30.05F
BURLEY         MOCLDY    66  52  60 E3        29.99F
EVANSTON, WY   MOCLDY    63  38  39 S3        30.24S
ROCK SPRINGS   CLEAR     67  38  34 CALM      30.24S
KEMMERER       PTCLDY    55  36  47 N7        30.26S

$$


USA.gov is the U.S. government's official web portal to all federal, state and local government web resources and services.